Dallas/Ft Worth, TX

1:44 PM CDT on July 20, 2017 (GMT -0500)
Dallas-Fort Worth International

Weather History for KDFW - January, 2015

Change the Weather History Date:

Friday, January 9, 2015

  Actual Average Record
Temperature  
Mean Temperature 33 °F 46 °F  
Max Temperature 39 °F 56 °F 82 °F (1957)
Min Temperature 27 °F 35 °F 12 °F (1977)
Degree Days  
Heating Degree Days 32 20  
Month to date heating degree days 263 180  
Since 1 July heating degree days 1137 1092  
Cooling Degree Days 0 0  
Month to date cooling degree days 0 0  
Year to date cooling degree days 0 0  
Moisture  
Dew Point 13 °F    
Average Humidity 48    
Maximum Humidity 63    
Minimum Humidity 32    
Precipitation  
Precipitation 0.00 in 0.06 in 1.52 in (2013)
Month to date precipitation 1.29 0.57  
Year to date precipitation 1.29 0.57  
Snow  
Snow 0.00 in 0.00 in 2.40 in (1962)
Month to date snowfall T 0.0  
Since 1 July snowfall T 0.3  
Snow Depth 0.00 in    
Sea Level Pressure  
Sea Level Pressure 30.51 in    
Wind  
Wind Speed 11 mph (NNE)    
Max Wind Speed 22 mph    
Max Gust Speed 26 mph    
Visibility 10 miles    
Events      
T = Trace of Precipitation, MM = Missing Value Source: NWS Daily Summary

Daily Weather History Graph

Daily Weather History Graph

Search for Another Location

Airport or City:

Trip Planner

Search our weather history database for the weather conditions in past years. The results will help you decide how hot, cold, wet, or windy it might be!

Date:

Astronomy

Jan. 09, 2015 Rise Set
Actual Time 7:31 AM CST 5:39 PM CST
Civil Twilight 7:04 AM CST 6:06 PM CST
Nautical Twilight 6:34 AM CST 6:36 PM CST
Astronomical Twilight 6:04 AM CST 7:06 PM CST
Moon 9:58 PM CST (1/9) 10:02 AM CST (1/9)
Length of Visible Light 11h 01m
Length of Day
10h 07m
Waning Gibbous, 82% of the Moon is Illuminated
Jan 9
Waning Gibbous
Jan 13
Last Quarter
Jan 20
New
Jan 26
First Quarter
Feb 3
Full

Hourly Weather History & Observations

Time (CST) Temp. Windchill Dew Point Humidity Pressure Visibility Wind Dir Wind Speed Gust Speed Precip Events Conditions
12:53 AM 30.0 °F 26.5 °F 16.0 °F 56% 30.34 in 10.0 mi South 3.5 mph - N/A   Mostly Cloudy
1:53 AM 28.9 °F - 17.1 °F 61% 30.36 in 10.0 mi Calm Calm - N/A   Mostly Cloudy
2:53 AM 30.0 °F - 16.0 °F 56% 30.38 in 10.0 mi Calm Calm - N/A   Scattered Clouds
3:53 AM 28.0 °F 22.8 °F 17.1 °F 63% 30.40 in 10.0 mi North 4.6 mph - N/A   Mostly Cloudy
4:53 AM 30.9 °F 25.2 °F 19.9 °F 64% 30.42 in 10.0 mi North 5.8 mph - N/A   Mostly Cloudy
5:53 AM 33.1 °F 25.5 °F 19.0 °F 56% 30.44 in 10.0 mi North 9.2 mph - N/A   Overcast
6:53 AM 33.1 °F 23.9 °F 21.0 °F 61% 30.46 in 10.0 mi North 12.7 mph - N/A   Overcast
7:53 AM 33.1 °F 23.4 °F 19.9 °F 59% 30.50 in 10.0 mi North 13.8 mph - N/A   Overcast
8:53 AM 32.0 °F 21.2 °F 16.0 °F 52% 30.54 in 10.0 mi NNE 16.1 mph 23.0 mph N/A   Overcast
9:53 AM 33.1 °F 23.0 °F 17.1 °F 52% 30.58 in 10.0 mi NNE 15.0 mph - N/A   Overcast
10:53 AM 33.8 °F 23.9 °F 15.8 °F 48% 30.58 in 10.0 mi NE 15.0 mph - N/A   Overcast
11:53 AM 35.1 °F 25.2 °F 14.0 °F 42% 30.56 in 10.0 mi NNE 16.1 mph - N/A   Overcast
12:53 PM 35.6 °F 26.2 °F 10.4 °F 35% 30.53 in 10.0 mi NNE 15.0 mph - N/A   Mostly Cloudy
1:53 PM 37.0 °F 27.0 °F 10.0 °F 33% 30.52 in 10.0 mi North 18.4 mph - N/A   Mostly Cloudy
2:53 PM 37.9 °F 30.0 °F 10.9 °F 33% 30.52 in 10.0 mi NNE 12.7 mph - N/A   Mostly Cloudy
3:53 PM 37.0 °F 28.5 °F 10.9 °F 34% 30.54 in 10.0 mi NNE 13.8 mph - N/A   Mostly Cloudy
4:53 PM 37.0 °F 27.4 °F 10.0 °F 33% 30.54 in 10.0 mi NNE 17.3 mph - N/A   Mostly Cloudy
5:53 PM 35.1 °F 25.5 °F 10.0 °F 35% 30.56 in 10.0 mi NNE 15.0 mph - N/A   Mostly Cloudy
6:53 PM 35.1 °F 26.9 °F 10.9 °F 37% 30.57 in 10.0 mi NNE 11.5 mph - N/A   Mostly Cloudy
7:53 PM 34.0 °F 25.0 °F 10.9 °F 38% 30.57 in 10.0 mi NNE 12.7 mph - N/A   Mostly Cloudy
8:53 PM 34.0 °F 25.0 °F 9.0 °F 35% 30.58 in 10.0 mi NNE 12.7 mph - N/A   Mostly Cloudy
9:53 PM 34.0 °F 26.0 °F 8.1 °F 34% 30.56 in 10.0 mi NE 10.4 mph - N/A   Mostly Cloudy
10:53 PM 33.1 °F 26.1 °F 8.1 °F 35% 30.56 in 10.0 mi NE 8.1 mph - N/A   Overcast
11:53 PM 32.0 °F 22.5 °F 6.1 °F 34% 30.55 in 10.0 mi NNE 12.7 mph - N/A   Overcast